DG8RAD-1 Weather Reports


time (UTC)temp
F
wind
direction
speed
knots
gust
knots
rain 1hr
in
rain 24hr
in
rain mn
in
humidity
%
barometer
mb
20260507091505 65 0 0.0 0.0 0.00 0.00 0.00 40 1016.0
20260507090006 66 0 0.0 0.0 0.00 0.00 0.00 41 1016.0
20260507084506 65 0 0.0 0.0 0.00 0.00 0.00 41 1016.0
20260507083006 65 0 0.0 0.0 0.00 0.00 0.00 41 1015.0
20260507081507 66 0 0.0 0.0 0.00 0.00 0.00 41 1015.0
20260507080005 67 0 0.0 0.0 0.00 0.00 0.00 40 1015.0
20260507074505 67 0 0.0 0.0 0.00 0.00 0.00 40 1015.0
20260507073005 66 0 0.0 0.0 0.00 0.00 0.00 42 1015.0
20260507071505 66 0 0.0 0.0 0.00 0.00 0.00 42 1015.0
20260507070009 66 0 0.0 0.0 0.00 0.00 0.00 43 1015.0
20260507064505 64 0 0.0 0.0 0.00 0.00 0.00 44 1015.0
20260507063005 64 0 0.0 0.0 0.00 0.00 0.00 45 1015.0
20260507061505 63 0 0.0 0.0 0.00 0.00 0.00 45 1015.0
20260507060005 63 0 0.0 0.0 0.00 0.00 0.00 46 1014.0
20260507054505 63 0 0.0 0.0 0.00 0.00 0.00 46 1014.0
20260507053005 63 0 0.0 0.0 0.00 0.00 0.00 48 1014.0
20260507051505 62 0 0.0 0.0 0.00 0.00 0.00 48 1014.0
20260507050005 62 0 0.0 0.0 0.00 0.00 0.00 48 1014.0
20260507044505 62 0 0.0 0.0 0.00 0.00 0.00 48 1014.0
20260507043005 62 0 0.0 0.0 0.00 0.00 0.00 48 1013.0
20260507041505 62 0 0.0 0.0 0.00 0.00 0.00 49 1013.0
20260507040005 61 0 0.0 0.0 0.00 0.00 0.00 48 1013.0
20260507034505 62 0 0.0 0.0 0.00 0.00 0.00 49 1013.0
20260507033005 61 0 0.0 0.0 0.00 0.00 0.00 48 1013.0
20260507031505 61 0 0.0 0.0 0.00 0.00 0.00 49 1013.0
20260507030005 61 0 0.0 0.0 0.00 0.00 0.00 49 1013.0
20260507024505 61 0 0.0 0.0 0.00 0.00 0.00 48 1013.0
20260507023005 61 0 0.0 0.0 0.00 0.00 0.00 48 1013.0
20260507021505 62 0 0.0 0.0 0.00 0.00 0.00 47 1013.0
20260507020005 62 0 0.0 0.0 0.00 0.00 0.00 47 1013.0
20260507014505 62 0 0.0 0.0 0.00 0.00 0.00 47 1013.0
20260507013005 62 0 0.0 0.0 0.00 0.00 0.00 47 1013.0
20260507011505 61 0 0.0 0.0 0.00 0.00 0.00 47 1013.0
20260507010005 62 0 0.0 0.0 0.00 0.00 0.00 48 1013.0
20260507004505 62 0 0.0 0.0 0.00 0.00 0.00 48 1013.0
20260507003005 62 0 0.0 0.0 0.00 0.00 0.00 48 1013.0
20260507001505 63 0 0.0 0.0 0.00 0.00 0.00 47 1013.0
20260507000005 63 0 0.0 0.0 0.00 0.00 0.00 47 1013.0
20260506234505 63 0 0.0 0.0 0.00 0.00 0.00 47 1013.0
20260506233005 63 0 0.0 0.0 0.00 0.00 0.00 47 1013.0
20260506231505 63 0 0.0 0.0 0.00 0.00 0.00 47 1013.0
20260506230005 63 0 0.0 0.0 0.00 0.00 0.00 46 1013.0
20260506214505 63 0 0.0 0.0 0.00 0.00 0.00 47 1012.0
20260506213005 63 0 0.0 0.0 0.00 0.00 0.00 48 1012.0
20260506211505 64 0 0.0 0.0 0.00 0.00 0.00 47 1012.0
20260506210005 64 0 0.0 0.0 0.00 0.00 0.00 46 1012.0
20260506204505 64 0 0.0 0.0 0.00 0.00 0.00 46 1012.0
20260506203005 64 0 0.0 0.0 0.00 0.00 0.00 46 1012.0
20260506201505 64 0 0.0 0.0 0.00 0.00 0.00 46 1012.0
20260506200005 64 0 0.0 0.0 0.00 0.00 0.00 47 1012.0
20260506194505 64 0 0.0 0.0 0.00 0.00 0.00 46 1012.0
20260506193005 65 0 0.0 0.0 0.00 0.00 0.00 45 1011.0
20260506191505 65 0 0.0 0.0 0.00 0.00 0.00 45 1012.0
20260506190006 64 0 0.0 0.0 0.00 0.00 0.00 46 1011.0
20260506184506 65 0 0.0 0.0 0.00 0.00 0.00 45 1011.0
20260506183005 65 0 0.0 0.0 0.00 0.00 0.00 44 1011.0
20260506181505 65 0 0.0 0.0 0.00 0.00 0.00 44 1010.0
20260506180006 64 0 0.0 0.0 0.00 0.00 0.00 44 1010.0
20260506174505 66 0 0.0 0.0 0.00 0.00 0.00 45 1010.0
20260506173008 66 0 0.0 0.0 0.00 0.00 0.00 44 1010.0
20260506171505 68 0 0.0 0.0 0.00 0.00 0.00 43 1009.0
20260506170005 69 0 0.0 0.0 0.00 0.00 0.00 42 1009.0
20260506164505 76 0 0.0 0.0 0.00 0.00 0.00 41 1009.0
20260506163005 80 0 0.0 0.0 0.00 0.00 0.00 38 1008.0
20260506161505 80 0 0.0 0.0 0.00 0.00 0.00 37 1008.0
20260506160005 91 0 0.0 0.0 0.00 0.00 0.00 28 1008.0
20260506154505 90 0 0.0 0.0 0.00 0.00 0.00 29 1008.0
20260506153005 84 0 0.0 0.0 0.00 0.00 0.00 37 1008.0
20260506151505 70 0 0.0 0.0 0.00 0.00 0.00 52 1008.0
20260506150005 69 0 0.0 0.0 0.00 0.00 0.00 52 1009.0
20260506144505 67 0 0.0 0.0 0.00 0.00 0.00 52 1008.0
20260506143007 69 0 0.0 0.0 0.00 0.00 0.00 49 1008.0
20260506141505 74 0 0.0 0.0 0.00 0.00 0.00 39 1007.0
20260506140005 77 0 0.0 0.0 0.00 0.00 0.00 33 1007.0
20260506134505 78 0 0.0 0.0 0.00 0.00 0.00 32 1007.0
20260506133005 81 0 0.0 0.0 0.00 0.00 0.00 30 1007.0
20260506131505 84 0 0.0 0.0 0.00 0.00 0.00 29 1006.0
20260506130005 83 0 0.0 0.0 0.00 0.00 0.00 29 1007.0
20260506124505 81 0 0.0 0.0 0.00 0.00 0.00 30 1007.0
20260506123005 80 0 0.0 0.0 0.00 0.00 0.00 31 1007.0
20260506121505 81 0 0.0 0.0 0.00 0.00 0.00 30 1007.0
20260506120005 81 0 0.0 0.0 0.00 0.00 0.00 30 1007.0
20260506114505 79 0 0.0 0.0 0.00 0.00 0.00 31 1008.0
20260506113005 80 0 0.0 0.0 0.00 0.00 0.00 30 1008.0
20260506111505 79 0 0.0 0.0 0.00 0.00 0.00 31 1008.0
20260506110005 79 0 0.0 0.0 0.00 0.00 0.00 32 1008.0
20260506104505 79 0 0.0 0.0 0.00 0.00 0.00 31 1008.0
20260506103005 78 0 0.0 0.0 0.00 0.00 0.00 31 1008.0
20260506101505 78 0 0.0 0.0 0.00 0.00 0.00 31 1009.0
20260506100005 76 0 0.0 0.0 0.00 0.00 0.00 32 1009.0
20260506094505 76 0 0.0 0.0 0.00 0.00 0.00 34 1009.0
20260506093005 76 0 0.0 0.0 0.00 0.00 0.00 33 1009.0